sat.trackr.live / text

‹ back to catalog

KUIPER-00160

NORAD 67765 · 2026-030B

PAYLOAD ACTIVE UNKNOWN

§ Identity

Operator
Country
US
Launch date
2026-02-12
Launch site
FRGUI
Launch vehicle
Mass (kg)
RCS (m²)

External: N2YO · Heavens-Above · Gunter

§ Orbital elements

Epoch: 2026-05-24T21:51:43.075872Z

Period
93.63 min
Inclination
51.8807°
Eccentricity
0.0005976
Mean motion
15.37913070 rev/d
Perigee alt
448.2 km
Apogee alt
456.4 km
Semi-major
6,830.4 km
B*
6.0262e-4
RAAN
210.9769°
Arg perigee
334.1117°
Mean anomaly
25.9571°
Rev number
1,681

§ Raw data

KUIPER-001601 67765U 26030B   26144.91091523  .00022501  00000+0  60262-3 0  99972 67765  51.8807 210.9769 0005976 334.1117  25.9571 15.37913070 16814

JSON: /api/v1/satellites/67765 · /tle

For live sub-satellite position, see the globe view (requires WebGL).

§ Visibility from observer

Set your observer location to see the next 7 days of passes ≥ 10°. The values pass through the URL so the page stays shareable.

No JS? Fill the form by hand. The geolocation button needs JavaScript.